Tracking 35019 objects as of 13-Aug-2026
HD Live streaming from Space Station
objects crossing your sky now

STARLINK-31668

Track STARLINK-31668 now!
10-day predictions
STARLINK-31668 is classified as:


NORAD ID: 59580
Int'l Code: 2024-076S
Launch date: April 23, 2024
Source: United States (US)
Launch site: AIR FORCE EASTERN TEST RANGE (AFETR)
Your satellite tracking list
Your tracking list is empty




NASA's NSSDC Master Catalog

Two Line Element Set (TLE):
1 59580U 24076S   26224.41148809  .00000362  00000-0  22670-4 0  9999
2 59580  43.0030 209.1045 0001258 280.3995  79.6715 15.27574813130329
Source of the keplerian elements: AFSPC